Regional Weather Roundup
Issued by NWS Upton, NY

Current Version | Previous Version | Text Only | Print | Product List | Glossary On
Versions: 1 2 3 4 5 6 7 8 9 10 11 12 13 14 15 16 17 18 19 20 21 22 23 24 25 26 27 28 29 30 31 32 33 34 35 36 37 38 39 40 41 42 43 44 45 46 47 48 49 50
000 ASUS41 KOKX 252218 RWROKX REGIONAL WEATHER ROUNDUP NATIONAL WEATHER SERVICE NEW YORK NY 600 PM EDT MON MAY 25 2015 NOTE: "FAIR" INDICATES FEW OR NO CLOUDS BELOW 12,000 FEET WITH NO SIGNIFICANT WEATHER AND/OR OBSTRUCTIONS TO VISIBILITY. NYZ071-072-176-178-NJZ106-104-252300- NEW YORK CITY METRO AREA CITY SKY/WX TMP DP RH WIND PRES REMARKS CENTRAL PARK PTSUNNY 82 57 42 MISG 30.17F LAGUARDIA APRT PTSUNNY 82 56 40 S15 30.15S KENNEDY INTL PTSUNNY 73 57 57 S28G38 30.18S NEWARK/LIBERTY PTSUNNY 87 54 32 SW20G30 30.14S BRNX BOT. GARD N/A 77 57 50 E5 30.17R TETERBORO MOSUNNY 87 54 32 SW20G25 30.12S $$ NYZ177-179-078>081-252300- LONG ISLAND NEW YORK CITY SKY/WX TMP DP RH WIND PRES REMARKS FARMINGDALE MOSUNNY 71 58 63 SW18G28 30.19S ISLIP PTSUNNY 69 57 65 S15 30.19S SHIRLEY SUNNY 67 57 70 S14G21 30.22S WESTHAMPTON SUNNY 67 56 67 SW15G21 30.23F MONTAUK POINT N/A 63 56 78 S10 30.23F $$ NYZ052-065-067-252300- HUDSON VALLEY CITY SKY/WX TMP DP RH WIND PRES REMARKS WHITE PLAINS MOSUNNY 77 57 50 S9G18 30.16F NEWBURGH MOSUNNY 84 57 39 SW17G23 30.13F MONTGOMERY NOT AVBL POUGHKEEPSIE SUNNY 85 57 38 S9G20 30.10F ALBANY PTSUNNY 86 56 35 S16G25 30.05F $$ NJZ001-105-106-008-010-013-015-019>022-104-252300- NEW JERSEY CITY SKY/WX TMP DP RH WIND PRES REMARKS NEWARK/LIBERTY PTSUNNY 87 54 32 SW20G30 30.14S TETERBORO MOSUNNY 87 54 32 SW20G25 30.12S CALDWELL SUNNY 85 54 34 VRB7G20 30.14S MORRISTOWN MOSUNNY 86 54 32 SW10G24 30.15S SOMERVILLE SUNNY 84 55 36 S15G22 30.14S SUSSEX SUNNY 84 52 33 SW10G22 30.15S ANDOVER N/A 83 52 34 SW8G17 30.15F TRENTON SUNNY 84 55 36 SW16G23 30.17S MILLVILLE SUNNY 79 58 48 S8 30.23S ATLANTIC CITY SUNNY 79 56 45 S18G29 30.24R WRIGHTSTOWN SUNNY 83 57 40 SW16 30.17S TOMS RIVER SUNNY N/A N/A N/A SW12G17 30.21R BELMAR MOSUNNY 82 55 39 SW13G22 30.19S $$ PAZ047>061-062-071-252300- EASTERN PENNSYLVANIA CITY SKY/WX TMP DP RH WIND PRES REMARKS PHILADELPHIA PTSUNNY 83 56 39 S17G24 30.19F ALLENTOWN MOSUNNY 84 58 40 S15G24 30.16S SCRANTON MOSUNNY 86 53 32 SW12G24 30.13S $$ CTZ002-004>006-009-010-012-RIZ004-006-007-MAZ004-011-015-252300- SOUTHERN NEW ENGLAND IN CT CITY SKY/WX TMP DP RH WIND PRES REMARKS BRADLEY INTL PTSUNNY 82 57 42 S15 30.13S HARTFORD SUNNY 79 56 45 S18G26 30.15S DANBURY SUNNY 79 56 45 S8G22 30.17S WTRBRY/OXFORD MOSUNNY 75 57 53 S14G22 30.19F BRIDGEPORT SUNNY 73 57 57 S16 30.17F MERIDEN SUNNY 79 55 43 S16G25 30.17S NEW HAVEN MOSUNNY 71 57 61 S8 30.19S CHESTER FAIR 73 57 56 SW8 30.21S GROTON MOSUNNY 63 56 78 S7 30.21S WILLIMANTIC MOSUNNY 79 54 41 S17G23 30.18F IN RI CITY SKY/WX TMP DP RH WIND PRES REMARKS PROVIDENCE PTSUNNY 75 56 51 S14 30.20F BLOCK ISLAND PTSUNNY 59 54 82 SW14 30.24S WESTERLY MOSUNNY 63 56 78 S8 30.23S IN MA CITY SKY/WX TMP DP RH WIND PRES REMARKS BOSTON PTSUNNY 75 56 51 S20 30.16S WORCESTER MOSUNNY 76 55 48 S10G22 30.18F WESTFIELD SUNNY 82 56 40 S17G28 30.11S PROVINCETOWN CLOUDY 64 54 68 S16 30.22R NANTUCKET PTSUNNY 60 55 83 S9 30.26F $$ ANZ330-335-338-340-345-350-353-355-252300- COASTAL MARINE OBSERVATIONS STATION/POSITION TIME SKY/WX TEMP WIND PRES VSBY WAVE AIR SEA DIR/SP/G HT/PER (UTC) (F) (DEG/KT/KT) (MB) (MI) (FT/S) NY HARB ENTRANCE 2150 63 57 200/ 21/ 25 1021.6 4/ 5 4S FIRE IS 2103 54 N/A 3/ 5 20S FIRE ISLAND 2150 60 56 200/ 17/ 21 1022.9 3/ 5 GREAT SOUTH BAY 2100 63 65 220/ 14/ 19 N/A 23SW MTP 2150 58 54 210/ 14/ 16 1023.3 2/ 3 HUDSON CANYON NOT AVBL KINGS POINT 2100 72 59 200/ 17/ 22 1020.8 CENTRAL LI SOUND 2030 63 55 180/ 10/ 12 N/A EASTERN LI SOUND 2100 57 170/ 10/ 14 N/A ROBBINS REEF 2100 78 190/ 15/ 22 1019.8 $$ >>>>>>>>>>>>>>>>>>>>>>>>>>>> KEY <<<<<<<<<<<<<<<<<<<<<<<<<<< > < > SKY/WX - SKY CONDITION/PRESENT WEATHER < > TMP - TEMPERATURE IN FAHRENHEIT < > DP - DEWPOINT IN FAHRENHEIT < > RH - RELATIVE HUMIDITY IN PERCENT < > WIND - DIRECTION AND SPEED IN MPH < > PRES - MEAN SEA LEVEL PRESSURE IN INCHES OF HG < > WCI - WIND CHILL INDEX < > VSB - VISIBILITY IN MILES < > HX - HEAT INDEX < > TC - TEMPERATURE IN CELSIUS < > VRB - VARIABLE WIND DIRECTION < > < >>>>>>>>>>>>>>>>>>>>>>>>>>>> KEY <<<<<<<<<<<<<<<<<<<<<<<<<<<

USA.gov is the U.S. government's official web portal to all federal, state and local government web resources and services.